Showing default

HOTSAT-2, 68465

Orbit data source: Space-Track

HOTSAT-2, 68465 is a payload satellite owned by Satellite Vu (UK) in SSO that was launched on Mon, 30 Mar 2026 UTC via an FALCON 9 launch vehicle from the Air Force Western Test Range (AFWTR). Payload-class satellites include a variety of spacecraft equipped with specific instruments for various scientific and technological missions. These include communications satellites like Starlink; space stations such as the ISS; scientific satellites like the Hubble; Earth observation satellites from companies like Planet Labs, Umbra, and HawkEye 360; GPS; miniature CubeSats for education and research; and military/defense satellites.

Loading next visibility...
Identifier
68465, 2026-067BB
Orbit
SSO
Country
Flag of UKUK
Related business
Manufacturer
SSTL
Mission
Operational spacecraft
Bus & Motor
DARKCARB, H2O AOCS
Mass
130 kg wet, 130 kg dry
Launch date (UTC)
2026-03-30 (3 months ago)
Launch vehicle
FALCON 9
Launch site
Air Force Western Test Range (AFWTR)
Object type
Payload
Rocket body
Debris
Shape & HBR
Unknown shape, 0.9 m
Radar Cross Section
Large (>1 m²)

Expand to show TLE details & history
Last TLE update: 2 days ago

TLE from 2 days ago
0 HOTSAT-2
1 68465U 26067BB  26171.40614882  .00002421  00000-0  12394-3 0  9991
2 68465  97.4528 129.7219 0005066  72.2720 287.9066 15.17555908 12427
Epoch: 2026-06-20T09:44Z
TLE epoch observation values (Epoch: 2026-06-20T09:44:51.258Z)
Latitude
-0.00003°
Longitude
74.8871°
Altitude
515.244 km
Speed
7.607 km/s
True Right ascension
08h 38m 53s
True Declination
0° 00' 00"
Sunlit
Object was in daylight at epoch
Visualization orbit readout
Latitude
Unknown
Longitude
Unknown
Altitude
Unknown
Speed
Unknown
Apparent Right ascension
Unknown
Apparent Declination
Unknown
Sunlit
N/A
Visualization observer readout
Local Sidereal Time
15:15:06
Azimuth
Unknown
Elevation
Unknown
Doppler factor
Unknown
Orbital elements
Apogee altitude
513.691 km
Perigee altitude
506.711 km
Semi-major axis
6,888.338 km
Eccentricity
0.00051
Inclination
97.4528°
RAAN
129.7219°
Arg. of periapsis
72.272°
True anomaly
287.85135°
Mean anomaly
287.9066°
Eccentric anomaly
287.87898°
Mean motion
3.7964 °/min
Orbital period
94.83 mins
BSTAR
0.00012394
Loading maneuver chart data...
Computing Atmospheric mass density...
Loading historical data...
Loading historical data...
Loading historical data...
Loading historical data...
Loading historical data...
Loading historical data...
Loading historical data...

Documentation

Showing up to 5 results
|